TimeAKST,TemperatureF,Dew PointF,Humidity,Sea Level PressureIn,VisibilityMPH,Wind Direction,Wind SpeedMPH,Gust SpeedMPH,PrecipitationIn,Events,Conditions,WindDirDegrees,DateUTC
12:53 AM,-2.0,-8.0,76,30.18,10.0,NNW,8.1,-,N/A,Fog,Patches of Fog,340,2013-11-30 09:53:00
1:53 AM,1.9,-5.1,72,30.20,10.0,NNE,5.8,-,N/A,Fog,Patches of Fog,20,2013-11-30 10:53:00
3:53 AM,-0.0,-8.0,69,30.21,10.0,NNW,6.9,-,N/A,,Partly Cloudy,340,2013-11-30 12:53:00
4:53 AM,1.0,-8.0,66,30.22,10.0,Calm,Calm,-,N/A,,Partly Cloudy,0,2013-11-30 13:53:00
5:53 AM,-0.9,-7.1,75,30.22,10.0,Calm,Calm,-,N/A,,Clear,0,2013-11-30 14:53:00
6:53 AM,1.0,-5.1,75,30.23,10.0,Calm,Calm,-,N/A,,Mostly Cloudy,0,2013-11-30 15:53:00
7:53 AM,-2.9,-9.0,75,30.22,10.0,Calm,Calm,-,N/A,,Partly Cloudy,0,2013-11-30 16:53:00
8:53 AM,1.9,-6.0,69,30.24,10.0,North,5.8,-,N/A,,Partly Cloudy,10,2013-11-30 17:53:00
9:53 AM,1.0,-7.1,69,30.24,10.0,NNE,5.8,-,N/A,,Partly Cloudy,20,2013-11-30 18:53:00
10:53 AM,1.9,-7.1,66,30.26,10.0,NNE,4.6,-,N/A,,Partly Cloudy,30,2013-11-30 19:53:00
11:53 AM,6.1,-5.1,60,30.27,10.0,North,11.5,17.3,N/A,,Partly Cloudy,350,2013-11-30 20:53:00
12:53 PM,9.0,-2.0,61,30.28,10.0,North,11.5,-,N/A,,Partly Cloudy,10,2013-11-30 21:53:00
1:53 PM,10.0,-2.9,56,30.29,10.0,North,9.2,-,N/A,,Clear,10,2013-11-30 22:53:00
2:53 PM,10.9,-2.0,56,30.30,10.0,North,18.4,23.0,N/A,,Clear,360,2013-11-30 23:53:00
3:53 PM,14.0,-0.0,54,30.30,10.0,North,16.1,23.0,N/A,,Clear,360,2013-12-01 00:53:00
4:53 PM,7.0,-0.9,70,30.32,10.0,Variable,3.5,-,N/A,,Partly Cloudy,0,2013-12-01 01:53:00
5:53 PM,7.0,-2.0,67,30.34,10.0,Calm,Calm,-,N/A,,Partly Cloudy,0,2013-12-01 02:53:00
6:53 PM,7.0,-2.9,64,30.36,10.0,East,4.6,-,N/A,,Clear,90,2013-12-01 03:53:00
7:53 PM,3.9,-2.0,76,30.37,10.0,Calm,Calm,-,N/A,,Clear,0,2013-12-01 04:53:00
8:53 PM,3.9,-2.9,73,30.36,10.0,Calm,Calm,-,N/A,,Clear,0,2013-12-01 05:53:00
9:53 PM,8.1,-2.9,61,30.38,10.0,North,8.1,-,N/A,,Clear,350,2013-12-01 06:53:00
10:53 PM,6.1,-2.9,67,30.39,10.0,North,6.9,-,N/A,,Clear,360,2013-12-01 07:53:00
11:53 PM,1.9,-5.1,72,30.41,10.0,Calm,Calm,-,N/A,,Clear,0,2013-12-01 08:53:00